This demonstration page uses our WeatherBlox Daily Observations layout. Learn more.

Left ArrowRight Arrow

38.83388, -104.82136

Hourly Observations for March 18, 2018

Temp ( °F °C ) Dew Point ( °F °C ) Humidity (%) Winds ( mph kmh ) Pressure ( in mb ) Visibility ( mi km ) Precip ( " mm )
12:58 am 00:58 Clear 45 7.1 1 -17 16 16 Calm 29.38 995 10 16 0.00 0.00
1:58 am 01:58 Clear 44 6.4 2 -16.6 18 18 NW 5 7 29.36 994 10 16 0.00 0.00
2:58 am 02:58 Clear 46 7.8 4 -15.8 17 17 SW 5 7 29.33 993 10 16 0.00 0.00
3:58 am 03:58 Partly Cloudy 46 7.5 3 -15.9 17 17 W 13 20 29.29 992 10 16 0.00 0.00
4:58 am 04:58 Clear 40 4.7 4 -15.6 22 22 Calm 29.33 993 10 16 0.00 0.00
5:58 am 05:58 Mostly Cloudy 40 4.3 5 -14.9 23 23 Calm 29.34 994 10 16 0.00 0.00
6:58 am 06:58 Mostly Cloudy 43 6.2 5 -15 20 20 W 9 15 29.32 993 10 16 0.00 0.00
7:58 am 07:58 Sunny 42 5.6 5 -15 21 21 Calm 29.31 993 10 16 0.00 0.00
8:58 am 08:58 Sunny 45 7.4 6 -14.5 20 20 E 3 6 29.29 992 10 16 0.00 0.00
9:58 am 09:58 Sunny 48 9 7 -13.7 19 19 E 7 11 29.25 991 10 16 0.00 0.00
10:58 am 10:58 Sunny 49 9.6 6 -14.7 17 17 SE 6 9 29.24 990 10 16 0.00 0.00
11:58 am 11:58 Partly Cloudy 53 11.8 7 -13.7 15 15 ESE 13 20 29.18 988 10 16 0.00 0.00
12:53 pm 12:53 Mostly Cloudy 54 12 3 -16 13 13 SE 18 30 29.16 987 10 16 0.00 0.00
12:58 pm 12:58 Mostly Cloudy 53 11.7 1 -17.1 12 12 SE 16 26 29.13 986 10 16 0.00 0.00
1:58 pm 13:58 Partly Cloudy 53 11.9 3 -16.2 12 12 SSE 26 43 29.11 986 10 16 0.00 0.00
2:45 pm 14:45 Mostly Cloudy 50 10 3 -16 14 14 S 14 22 29.11 986 10 16 0.00 0.00
2:58 pm 14:58 Mostly Cloudy 50 10 6 -14.6 16 16 NNW 5 7 29.12 986 10 16 0.00 0.00
3:58 pm 15:58 Mostly Cloudy 47 8.1 19 -7.3 33 33 NNW 16 26 29.13 987 10 16 0.00 0.00
4:06 pm 16:06 Partly Cloudy 45 7 18 -8 34 34 NW 16 26 29.15 987 10 16 0.00 0.00
4:58 pm 16:58 Mostly Cloudy 41 5.2 26 -3.5 54 54 NNW 16 26 29.21 989 10 16 0.00 0.00
5:59 pm 17:59 Mostly Cloudy 41 4.8 25 -3.8 54 54 N 15 24 29.22 990 10 16 0.00 0.00
6:58 pm 18:58 Mostly Cloudy 37 2.8 28 -2.1 70 70 NNW 18 30 29.25 991 10 16 0.00 0.00
7:58 pm 19:58 Mostly Cloudy 37 2.6 27 -2.7 68 68 NNW 16 26 29.30 992 10 16 0.00 0.00
8:58 pm 20:58 Mostly Cloudy 33 0.8 29 -1.9 82 82 NNW 23 37 29.30 992 10 16 0.00 0.00
9:09 pm 21:09 Mostly Cloudy with Light Rain 34 1 28 -2 81 81 NW 16 26 29.32 993 10 16 0.00 0.00
9:39 pm 21:39 Mostly Cloudy with Light Snow 32 0 28 -2 87 87 NNW 18 30 29.33 993 6 10 0.00 0.00
9:44 pm 21:44 Mostly Cloudy with Light Snow 34 1 28 -2 81 81 NNW 18 30 29.31 993 10 16 0.00 0.00
9:58 pm 21:58 Mostly Cloudy with Light Rain/Snow 34 1.1 25 -3.7 71 71 N 15 24 29.32 993 10 16 0.00 0.00
10:58 pm 22:58 Mostly Cloudy with Light Snow Showers 31 -0.3 29 -1.5 92 92 N 17 28 29.36 994 5 8 0.00 0.00
11:03 pm 23:03 Mostly Cloudy with Light Snow Showers 32 0 28 -2 87 87 N 18 30 29.36 994 10 16 0.00 0.00
11:40 pm 23:40 Mostly Cloudy 32 0 28 -2 87 87 N 14 22 29.39 995 10 16 0.00 0.00
11:58 pm 23:58 Mostly Cloudy 32 0.2 25 -4.1 73 73 N 15 24 29.39 995 10 16 0.00 0.00

Powered by AerisWeather